Time,TemperatureF,DewpointF,PressureIn,WindDirection,WindDirectionDegrees,WindSpeedMPH,WindSpeedGustMPH,Humidity,HourlyPrecipIn,Conditions,Clouds,dailyrainin,SoftwareType,DateUTC
2013-05-18 00:00:00,70.4,61.7,30.06,East,90,2.0,-999.0,74,0.00,,,0.00,Wunderground v.1.15,2013-05-18 10:00:00,
2013-05-18 00:05:00,70.4,61.7,30.06,East,90,2.0,-999.0,74,0.00,,,0.00,Wunderground v.1.15,2013-05-18 10:05:00,
2013-05-18 00:10:00,70.4,61.7,30.06,East,90,2.0,-999.0,74,0.00,,,0.00,Wunderground v.1.15,2013-05-18 10:10:00,
2013-05-18 00:15:00,70.4,61.7,30.06,East,90,2.0,-999.0,74,0.00,,,0.00,Wunderground v.1.15,2013-05-18 10:15:00,
2013-05-18 00:20:00,70.4,61.7,30.06,East,90,2.0,-999.0,74,0.00,,,0.00,Wunderground v.1.15,2013-05-18 10:20:00,
2013-05-18 00:25:00,70.4,61.7,30.06,East,90,2.0,-999.0,74,0.00,,,0.00,Wunderground v.1.15,2013-05-18 10:25:00,
2013-05-18 00:30:00,70.4,61.7,30.06,East,90,2.0,-999.0,74,0.00,,,0.00,Wunderground v.1.15,2013-05-18 10:30:00,
2013-05-18 00:35:00,70.4,61.7,30.06,East,90,2.0,-999.0,74,0.00,,,0.00,Wunderground v.1.15,2013-05-18 10:35:00,
2013-05-18 00:40:00,70.4,61.7,30.06,East,90,2.0,-999.0,74,0.00,,,0.00,Wunderground v.1.15,2013-05-18 10:40:00,
2013-05-18 00:45:00,69.8,61.1,30.05,East,90,1.0,-999.0,74,0.00,,,0.00,Wunderground v.1.15,2013-05-18 10:45:00,
2013-05-18 00:50:00,69.8,61.1,30.05,East,90,1.0,-999.0,74,0.00,,,0.00,Wunderground v.1.15,2013-05-18 10:50:00,
2013-05-18 00:55:00,69.8,61.1,30.05,East,90,1.0,-999.0,74,0.00,,,0.00,Wunderground v.1.15,2013-05-18 10:55:00,
2013-05-18 01:00:00,69.8,61.1,30.05,East,90,1.0,-999.0,74,0.00,,,0.00,Wunderground v.1.15,2013-05-18 11:00:00,
2013-05-18 01:05:00,69.8,61.1,30.05,East,90,1.0,-999.0,74,0.00,,,0.00,Wunderground v.1.15,2013-05-18 11:05:00,
2013-05-18 01:10:00,69.8,61.1,30.05,East,90,1.0,-999.0,74,0.00,,,0.00,Wunderground v.1.15,2013-05-18 11:10:00,
2013-05-18 01:15:00,69.2,59.8,30.05,East,90,3.0,-999.0,72,0.00,,,0.00,Wunderground v.1.15,2013-05-18 11:15:00,
2013-05-18 01:20:00,69.2,59.8,30.05,East,90,3.0,-999.0,72,0.00,,,0.00,Wunderground v.1.15,2013-05-18 11:20:00,
2013-05-18 01:25:00,69.2,59.8,30.05,East,90,3.0,-999.0,72,0.00,,,0.00,Wunderground v.1.15,2013-05-18 11:25:00,
2013-05-18 01:30:00,69.2,59.8,30.05,East,90,3.0,-999.0,72,0.00,,,0.00,Wunderground v.1.15,2013-05-18 11:30:00,
2013-05-18 01:35:00,69.2,59.8,30.05,East,90,3.0,-999.0,72,0.00,,,0.00,Wunderground v.1.15,2013-05-18 11:35:00,
2013-05-18 01:40:00,69.2,59.8,30.05,East,90,3.0,-999.0,72,0.00,,,0.00,Wunderground v.1.15,2013-05-18 11:40:00,
2013-05-18 01:45:00,68.9,59.5,30.04,ENE,68,2.0,-999.0,72,0.00,,,0.00,Wunderground v.1.15,2013-05-18 11:45:00,
2013-05-18 01:50:00,68.9,59.5,30.04,ENE,68,2.0,-999.0,72,0.00,,,0.00,Wunderground v.1.15,2013-05-18 11:50:00,
2013-05-18 01:55:00,68.9,59.5,30.04,ENE,68,2.0,-999.0,72,0.00,,,0.00,Wunderground v.1.15,2013-05-18 11:55:00,
2013-05-18 02:00:00,68.9,59.5,30.04,ENE,68,2.0,-999.0,72,0.00,,,0.00,Wunderground v.1.15,2013-05-18 12:00:00,
2013-05-18 02:05:00,68.9,59.5,30.04,ENE,68,2.0,-999.0,72,0.00,,,0.00,Wunderground v.1.15,2013-05-18 12:05:00,
2013-05-18 02:10:00,68.9,59.5,30.04,ENE,68,2.0,-999.0,72,0.00,,,0.00,Wunderground v.1.15,2013-05-18 12:10:00,
2013-05-18 02:15:00,68.1,61.0,30.03,ENE,68,0.0,-999.0,78,0.00,,,0.00,Wunderground v.1.15,2013-05-18 12:15:00,
2013-05-18 02:20:00,68.1,61.0,30.03,ENE,68,0.0,-999.0,78,0.00,,,0.00,Wunderground v.1.15,2013-05-18 12:20:00,
2013-05-18 02:25:00,68.1,61.0,30.03,ENE,68,0.0,-999.0,78,0.00,,,0.00,Wunderground v.1.15,2013-05-18 12:25:00,
2013-05-18 02:30:00,68.1,61.0,30.03,ENE,68,0.0,-999.0,78,0.00,,,0.00,Wunderground v.1.15,2013-05-18 12:30:00,
2013-05-18 02:35:00,68.1,61.0,30.03,ENE,68,0.0,-999.0,78,0.00,,,0.00,Wunderground v.1.15,2013-05-18 12:35:00,
2013-05-18 02:40:00,68.1,61.0,30.03,ENE,68,0.0,-999.0,78,0.00,,,0.00,Wunderground v.1.15,2013-05-18 12:40:00,
2013-05-18 02:45:00,67.3,61.6,30.03,ENE,68,2.0,-999.0,82,0.00,,,0.00,Wunderground v.1.15,2013-05-18 12:45:00,
2013-05-18 02:50:00,67.3,61.6,30.03,ENE,68,2.0,-999.0,82,0.00,,,0.00,Wunderground v.1.15,2013-05-18 12:50:00,
2013-05-18 02:55:00,67.3,61.6,30.03,ENE,68,2.0,-999.0,82,0.00,,,0.00,Wunderground v.1.15,2013-05-18 12:55:00,
2013-05-18 03:00:00,67.3,61.6,30.03,ENE,68,2.0,-999.0,82,0.00,,,0.00,Wunderground v.1.15,2013-05-18 13:00:00,
2013-05-18 03:05:00,67.3,61.6,30.03,ENE,68,2.0,-999.0,82,0.00,,,0.00,Wunderground v.1.15,2013-05-18 13:05:00,
2013-05-18 03:10:00,67.3,61.6,30.03,ENE,68,2.0,-999.0,82,0.00,,,0.00,Wunderground v.1.15,2013-05-18 13:10:00,
2013-05-18 03:15:00,67.6,60.9,30.02,ENE,68,3.0,-999.0,79,0.00,,,0.00,Wunderground v.1.15,2013-05-18 13:15:00,
2013-05-18 03:20:00,67.6,60.9,30.02,ENE,68,3.0,-999.0,79,0.00,,,0.00,Wunderground v.1.15,2013-05-18 13:20:00,
2013-05-18 03:25:00,67.6,60.9,30.02,ENE,68,3.0,-999.0,79,0.00,,,0.00,Wunderground v.1.15,2013-05-18 13:25:00,
2013-05-18 03:30:00,67.6,60.9,30.02,ENE,68,3.0,-999.0,79,0.00,,,0.00,Wunderground v.1.15,2013-05-18 13:30:00,
2013-05-18 03:35:00,67.6,60.9,30.02,ENE,68,3.0,-999.0,79,0.00,,,0.00,Wunderground v.1.15,2013-05-18 13:35:00,
2013-05-18 03:40:00,67.6,60.9,30.02,ENE,68,3.0,-999.0,79,0.00,,,0.00,Wunderground v.1.15,2013-05-18 13:40:00,
2013-05-18 03:45:00,67.5,61.8,30.02,ENE,68,0.0,-999.0,82,0.00,,,0.00,Wunderground v.1.15,2013-05-18 13:45:00,
2013-05-18 03:50:00,67.5,61.8,30.02,ENE,68,0.0,-999.0,82,0.00,,,0.00,Wunderground v.1.15,2013-05-18 13:50:00,
2013-05-18 03:55:00,67.5,61.8,30.02,ENE,68,0.0,-999.0,82,0.00,,,0.00,Wunderground v.1.15,2013-05-18 13:55:00,
2013-05-18 04:00:00,67.5,61.8,30.02,ENE,68,0.0,-999.0,82,0.00,,,0.00,Wunderground v.1.15,2013-05-18 14:00:00,
2013-05-18 04:05:00,67.5,61.8,30.02,ENE,68,0.0,-999.0,82,0.00,,,0.00,Wunderground v.1.15,2013-05-18 14:05:00,
2013-05-18 04:10:00,67.5,61.8,30.02,ENE,68,0.0,-999.0,82,0.00,,,0.00,Wunderground v.1.15,2013-05-18 14:10:00,
2013-05-18 04:15:00,67.0,62.0,30.02,ENE,68,2.0,-999.0,84,0.00,,,0.00,Wunderground v.1.15,2013-05-18 14:15:00,
2013-05-18 04:20:00,67.0,62.0,30.02,ENE,68,2.0,-999.0,84,0.00,,,0.00,Wunderground v.1.15,2013-05-18 14:20:00,
2013-05-18 04:25:00,67.0,62.0,30.02,ENE,68,2.0,-999.0,84,0.00,,,0.00,Wunderground v.1.15,2013-05-18 14:25:00,
2013-05-18 04:30:00,67.0,62.0,30.02,ENE,68,2.0,-999.0,84,0.00,,,0.00,Wunderground v.1.15,2013-05-18 14:30:00,
2013-05-18 04:35:00,67.0,62.0,30.02,ENE,68,2.0,-999.0,84,0.00,,,0.00,Wunderground v.1.15,2013-05-18 14:35:00,
2013-05-18 04:40:00,67.0,62.0,30.02,ENE,68,2.0,-999.0,84,0.00,,,0.00,Wunderground v.1.15,2013-05-18 14:40:00,
2013-05-18 04:45:00,67.0,61.7,30.02,ENE,68,3.0,-999.0,83,0.00,,,0.00,Wunderground v.1.15,2013-05-18 14:45:00,
2013-05-18 04:50:00,67.0,61.7,30.02,ENE,68,3.0,-999.0,83,0.00,,,0.00,Wunderground v.1.15,2013-05-18 14:50:00,
2013-05-18 04:55:00,67.0,61.7,30.02,ENE,68,3.0,-999.0,83,0.00,,,0.00,Wunderground v.1.15,2013-05-18 14:55:00,
2013-05-18 05:00:00,67.0,61.7,30.02,ENE,68,3.0,-999.0,83,0.00,,,0.00,Wunderground v.1.15,2013-05-18 15:00:00,
2013-05-18 05:05:00,67.0,61.7,30.02,ENE,68,3.0,-999.0,83,0.00,,,0.00,Wunderground v.1.15,2013-05-18 15:05:00,
2013-05-18 05:10:00,67.0,61.7,30.02,ENE,68,3.0,-999.0,83,0.00,,,0.00,Wunderground v.1.15,2013-05-18 15:10:00,
2013-05-18 05:15:00,66.8,60.1,30.03,ENE,68,3.0,-999.0,79,0.00,,,0.00,Wunderground v.1.15,2013-05-18 15:15:00,
2013-05-18 05:20:00,66.8,60.1,30.03,ENE,68,3.0,-999.0,79,0.00,,,0.00,Wunderground v.1.15,2013-05-18 15:20:00,
2013-05-18 05:25:00,66.8,60.1,30.03,ENE,68,3.0,-999.0,79,0.00,,,0.00,Wunderground v.1.15,2013-05-18 15:25:00,
2013-05-18 05:30:00,66.8,60.1,30.03,ENE,68,3.0,-999.0,79,0.00,,,0.00,Wunderground v.1.15,2013-05-18 15:30:00,
2013-05-18 05:35:00,66.8,60.1,30.03,ENE,68,3.0,-999.0,79,0.00,,,0.00,Wunderground v.1.15,2013-05-18 15:35:00,
2013-05-18 05:40:00,66.8,60.1,30.03,ENE,68,3.0,-999.0,79,0.00,,,0.00,Wunderground v.1.15,2013-05-18 15:40:00,
2013-05-18 05:45:00,66.8,59.4,30.04,ENE,68,1.0,-999.0,77,0.00,,,0.00,Wunderground v.1.15,2013-05-18 15:45:00,
2013-05-18 05:50:00,66.8,59.4,30.04,ENE,68,1.0,-999.0,77,0.00,,,0.00,Wunderground v.1.15,2013-05-18 15:50:00,
2013-05-18 05:55:00,66.8,59.4,30.04,ENE,68,1.0,-999.0,77,0.00,,,0.00,Wunderground v.1.15,2013-05-18 15:55:00,
2013-05-18 06:00:00,66.8,59.4,30.04,ENE,68,1.0,-999.0,77,0.00,,,0.00,Wunderground v.1.15,2013-05-18 16:00:00,
2013-05-18 06:05:00,66.8,59.4,30.04,ENE,68,1.0,-999.0,77,0.00,,,0.00,Wunderground v.1.15,2013-05-18 16:05:00,
2013-05-18 06:10:00,66.8,59.4,30.04,ENE,68,1.0,-999.0,77,0.00,,,0.00,Wunderground v.1.15,2013-05-18 16:10:00,
2013-05-18 06:15:00,66.6,59.9,30.05,ENE,68,0.0,-999.0,79,0.00,,,0.00,Wunderground v.1.15,2013-05-18 16:15:00,
2013-05-18 06:20:00,66.6,59.9,30.05,ENE,68,0.0,-999.0,79,0.00,,,0.00,Wunderground v.1.15,2013-05-18 16:20:00,
2013-05-18 06:25:00,66.6,59.9,30.05,ENE,68,0.0,-999.0,79,0.00,,,0.00,Wunderground v.1.15,2013-05-18 16:25:00,
2013-05-18 06:30:00,66.6,59.9,30.05,ENE,68,0.0,-999.0,79,0.00,,,0.00,Wunderground v.1.15,2013-05-18 16:30:00,
2013-05-18 06:35:00,66.6,59.9,30.05,ENE,68,0.0,-999.0,79,0.00,,,0.00,Wunderground v.1.15,2013-05-18 16:35:00,
2013-05-18 06:40:00,66.6,59.9,30.05,ENE,68,0.0,-999.0,79,0.00,,,0.00,Wunderground v.1.15,2013-05-18 16:40:00,
2013-05-18 06:45:00,67.8,59.2,30.06,ENE,68,1.0,-999.0,74,0.00,,,0.00,Wunderground v.1.15,2013-05-18 16:45:00,
2013-05-18 06:50:00,67.8,59.2,30.06,ENE,68,1.0,-999.0,74,0.00,,,0.00,Wunderground v.1.15,2013-05-18 16:50:00,
2013-05-18 06:55:00,67.8,59.2,30.06,ENE,68,1.0,-999.0,74,0.00,,,0.00,Wunderground v.1.15,2013-05-18 16:55:00,
2013-05-18 07:00:00,67.8,59.2,30.06,ENE,68,1.0,-999.0,74,0.00,,,0.00,Wunderground v.1.15,2013-05-18 17:00:00,
2013-05-18 07:05:00,67.8,59.2,30.06,ENE,68,1.0,-999.0,74,0.00,,,0.00,Wunderground v.1.15,2013-05-18 17:05:00,
2013-05-18 07:10:00,67.8,59.2,30.06,ENE,68,1.0,-999.0,74,0.00,,,0.00,Wunderground v.1.15,2013-05-18 17:10:00,
2013-05-18 07:15:00,71.8,59.8,30.06,ENE,68,1.0,-999.0,66,0.00,,,0.00,Wunderground v.1.15,2013-05-18 17:15:00,
2013-05-18 07:20:00,71.8,59.8,30.06,ENE,68,1.0,-999.0,66,0.00,,,0.00,Wunderground v.1.15,2013-05-18 17:20:00,
2013-05-18 07:25:00,71.8,59.8,30.06,ENE,68,1.0,-999.0,66,0.00,,,0.00,Wunderground v.1.15,2013-05-18 17:25:00,
2013-05-18 07:30:00,71.8,59.8,30.06,ENE,68,1.0,-999.0,66,0.00,,,0.00,Wunderground v.1.15,2013-05-18 17:30:00,
2013-05-18 07:35:00,71.8,59.8,30.06,ENE,68,1.0,-999.0,66,0.00,,,0.00,Wunderground v.1.15,2013-05-18 17:35:00,
2013-05-18 07:40:00,71.8,59.8,30.06,ENE,68,1.0,-999.0,66,0.00,,,0.00,Wunderground v.1.15,2013-05-18 17:40:00,
2013-05-18 07:45:00,75.4,63.2,30.06,ENE,68,0.0,-999.0,66,0.00,,,0.00,Wunderground v.1.15,2013-05-18 17:45:00,
2013-05-18 07:50:00,75.4,63.2,30.06,ENE,68,0.0,-999.0,66,0.00,,,0.00,Wunderground v.1.15,2013-05-18 17:50:00,
2013-05-18 07:55:00,75.4,63.2,30.06,ENE,68,0.0,-999.0,66,0.00,,,0.00,Wunderground v.1.15,2013-05-18 17:55:00,
2013-05-18 08:00:00,75.4,63.2,30.06,ENE,68,0.0,-999.0,66,0.00,,,0.00,Wunderground v.1.15,2013-05-18 18:00:00,
2013-05-18 08:05:00,75.4,63.2,30.06,ENE,68,0.0,-999.0,66,0.00,,,0.00,Wunderground v.1.15,2013-05-18 18:05:00,
2013-05-18 08:10:00,75.4,63.2,30.06,ENE,68,0.0,-999.0,66,0.00,,,0.00,Wunderground v.1.15,2013-05-18 18:10:00,
2013-05-18 08:15:00,75.9,64.6,30.07,ENE,68,2.0,-999.0,68,0.00,,,0.00,Wunderground v.1.15,2013-05-18 18:15:00,
2013-05-18 08:20:00,75.9,64.6,30.07,ENE,68,2.0,-999.0,68,0.00,,,0.00,Wunderground v.1.15,2013-05-18 18:20:00,
2013-05-18 08:25:00,75.9,64.6,30.07,ENE,68,2.0,-999.0,68,0.00,,,0.00,Wunderground v.1.15,2013-05-18 18:25:00,
2013-05-18 08:30:00,75.9,64.6,30.07,ENE,68,2.0,-999.0,68,0.00,,,0.00,Wunderground v.1.15,2013-05-18 18:30:00,
2013-05-18 08:35:00,75.9,64.6,30.07,ENE,68,2.0,-999.0,68,0.00,,,0.00,Wunderground v.1.15,2013-05-18 18:35:00,
2013-05-18 08:40:00,75.9,64.6,30.07,ENE,68,2.0,-999.0,68,0.00,,,0.00,Wunderground v.1.15,2013-05-18 18:40:00,
2013-05-18 08:45:00,77.9,60.9,30.07,NE,45,5.0,-999.0,56,0.00,,,0.00,Wunderground v.1.15,2013-05-18 18:45:00,
2013-05-18 08:50:00,77.9,60.9,30.07,NE,45,5.0,-999.0,56,0.00,,,0.00,Wunderground v.1.15,2013-05-18 18:50:00,
2013-05-18 08:55:00,77.9,60.9,30.07,NE,45,5.0,-999.0,56,0.00,,,0.00,Wunderground v.1.15,2013-05-18 18:55:00,
2013-05-18 09:00:00,77.9,60.9,30.07,NE,45,5.0,-999.0,56,0.00,,,0.00,Wunderground v.1.15,2013-05-18 19:00:00,
2013-05-18 09:05:00,77.9,60.9,30.07,NE,45,5.0,-999.0,56,0.00,,,0.00,Wunderground v.1.15,2013-05-18 19:05:00,
2013-05-18 09:10:00,77.9,60.9,30.07,NE,45,5.0,-999.0,56,0.00,,,0.00,Wunderground v.1.15,2013-05-18 19:10:00,
2013-05-18 09:15:00,79.2,67.3,30.08,NE,45,4.0,-999.0,67,0.00,,,0.00,Wunderground v.1.15,2013-05-18 19:15:00,
2013-05-18 09:20:00,79.2,67.3,30.08,NE,45,4.0,-999.0,67,0.00,,,0.00,Wunderground v.1.15,2013-05-18 19:20:00,
2013-05-18 09:25:00,79.2,67.3,30.08,NE,45,4.0,-999.0,67,0.00,,,0.00,Wunderground v.1.15,2013-05-18 19:25:00,
2013-05-18 09:30:00,79.2,67.3,30.08,NE,45,4.0,-999.0,67,0.00,,,0.00,Wunderground v.1.15,2013-05-18 19:30:00,
2013-05-18 09:35:00,79.2,67.3,30.08,NE,45,4.0,-999.0,67,0.00,,,0.00,Wunderground v.1.15,2013-05-18 19:35:00,
2013-05-18 09:40:00,79.2,67.3,30.08,NE,45,4.0,-999.0,67,0.00,,,0.00,Wunderground v.1.15,2013-05-18 19:40:00,
2013-05-18 09:45:00,76.0,62.5,30.08,NNE,23,2.0,-999.0,63,0.00,,,0.00,Wunderground v.1.15,2013-05-18 19:45:00,
2013-05-18 09:50:00,76.0,62.5,30.08,NNE,23,2.0,-999.0,63,0.00,,,0.00,Wunderground v.1.15,2013-05-18 19:50:00,
2013-05-18 09:55:00,76.0,62.5,30.08,NNE,23,2.0,-999.0,63,0.00,,,0.00,Wunderground v.1.15,2013-05-18 19:55:00,
2013-05-18 10:00:00,76.0,62.5,30.08,NNE,23,2.0,-999.0,63,0.00,,,0.00,Wunderground v.1.15,2013-05-18 20:00:00,
2013-05-18 10:05:00,76.0,62.5,30.08,NNE,23,2.0,-999.0,63,0.00,,,0.00,Wunderground v.1.15,2013-05-18 20:05:00,
2013-05-18 10:10:00,76.0,62.5,30.08,NNE,23,2.0,-999.0,63,0.00,,,0.00,Wunderground v.1.15,2013-05-18 20:10:00,
2013-05-18 10:15:00,78.1,62.6,30.07,NNE,23,2.0,-999.0,59,0.00,,,0.00,Wunderground v.1.15,2013-05-18 20:15:00,
2013-05-18 10:20:00,78.1,62.6,30.07,NNE,23,2.0,-999.0,59,0.00,,,0.00,Wunderground v.1.15,2013-05-18 20:20:00,
2013-05-18 10:25:00,78.1,62.6,30.07,NNE,23,2.0,-999.0,59,0.00,,,0.00,Wunderground v.1.15,2013-05-18 20:25:00,
2013-05-18 10:30:00,78.1,62.6,30.07,NNE,23,2.0,-999.0,59,0.00,,,0.00,Wunderground v.1.15,2013-05-18 20:30:00,
2013-05-18 10:35:00,78.1,62.6,30.07,NNE,23,2.0,-999.0,59,0.00,,,0.00,Wunderground v.1.15,2013-05-18 20:35:00,
2013-05-18 10:40:00,78.1,62.6,30.07,NNE,23,2.0,-999.0,59,0.00,,,0.00,Wunderground v.1.15,2013-05-18 20:40:00,
2013-05-18 10:45:00,79.7,67.3,30.08,NNE,23,2.0,-999.0,66,0.00,,,0.00,Wunderground v.1.15,2013-05-18 20:45:00,
2013-05-18 10:50:00,79.7,67.3,30.08,NNE,23,2.0,-999.0,66,0.00,,,0.00,Wunderground v.1.15,2013-05-18 20:50:00,
2013-05-18 10:55:00,79.7,67.3,30.08,NNE,23,2.0,-999.0,66,0.00,,,0.00,Wunderground v.1.15,2013-05-18 20:55:00,
2013-05-18 11:00:00,79.7,67.3,30.08,NNE,23,2.0,-999.0,66,0.00,,,0.00,Wunderground v.1.15,2013-05-18 21:00:00,
2013-05-18 11:05:00,79.7,67.3,30.08,NNE,23,2.0,-999.0,66,0.00,,,0.00,Wunderground v.1.15,2013-05-18 21:05:00,
2013-05-18 11:10:00,79.7,67.3,30.08,NNE,23,2.0,-999.0,66,0.00,,,0.00,Wunderground v.1.15,2013-05-18 21:10:00,
2013-05-18 11:15:00,76.2,66.1,30.07,NNE,23,2.0,-999.0,71,0.00,,,0.00,Wunderground v.1.15,2013-05-18 21:15:00,
2013-05-18 11:20:00,76.2,66.1,30.07,NNE,23,2.0,-999.0,71,0.00,,,0.00,Wunderground v.1.15,2013-05-18 21:20:00,
2013-05-18 11:25:00,76.2,66.1,30.07,NNE,23,2.0,-999.0,71,0.00,,,0.00,Wunderground v.1.15,2013-05-18 21:25:00,
2013-05-18 11:30:00,76.2,66.1,30.07,NNE,23,2.0,-999.0,71,0.00,,,0.00,Wunderground v.1.15,2013-05-18 21:30:00,
2013-05-18 11:35:00,76.2,66.1,30.07,NNE,23,2.0,-999.0,71,0.00,,,0.00,Wunderground v.1.15,2013-05-18 21:35:00,
2013-05-18 11:40:00,76.2,66.1,30.07,NNE,23,2.0,-999.0,71,0.00,,,0.00,Wunderground v.1.15,2013-05-18 21:40:00,
2013-05-18 11:45:00,75.3,65.6,30.07,NNE,23,1.0,-999.0,72,0.00,,,0.00,Wunderground v.1.15,2013-05-18 21:45:00,
2013-05-18 11:50:00,75.3,65.6,30.07,NNE,23,1.0,-999.0,72,0.00,,,0.00,Wunderground v.1.15,2013-05-18 21:50:00,
2013-05-18 11:55:00,75.3,65.6,30.07,NNE,23,1.0,-999.0,72,0.00,,,0.00,Wunderground v.1.15,2013-05-18 21:55:00,
2013-05-18 12:00:00,75.3,65.6,30.07,NNE,23,1.0,-999.0,72,0.00,,,0.00,Wunderground v.1.15,2013-05-18 22:00:00,
2013-05-18 12:05:00,75.3,65.6,30.07,NNE,23,1.0,-999.0,72,0.00,,,0.00,Wunderground v.1.15,2013-05-18 22:05:00,
2013-05-18 12:10:00,75.3,65.6,30.07,NNE,23,1.0,-999.0,72,0.00,,,0.00,Wunderground v.1.15,2013-05-18 22:10:00,
2013-05-18 12:15:00,75.7,66.4,30.06,NNE,23,1.0,-999.0,73,0.00,,,0.00,Wunderground v.1.15,2013-05-18 22:15:00,
2013-05-18 12:20:00,75.7,66.4,30.06,NNE,23,1.0,-999.0,73,0.00,,,0.00,Wunderground v.1.15,2013-05-18 22:20:00,
2013-05-18 12:25:00,75.7,66.4,30.06,NNE,23,1.0,-999.0,73,0.00,,,0.00,Wunderground v.1.15,2013-05-18 22:25:00,
2013-05-18 12:30:00,75.7,66.4,30.06,NNE,23,1.0,-999.0,73,0.00,,,0.00,Wunderground v.1.15,2013-05-18 22:30:00,
2013-05-18 12:35:00,75.7,66.4,30.06,NNE,23,1.0,-999.0,73,0.00,,,0.00,Wunderground v.1.15,2013-05-18 22:35:00,
2013-05-18 12:40:00,75.7,66.4,30.06,NNE,23,1.0,-999.0,73,0.00,,,0.00,Wunderground v.1.15,2013-05-18 22:40:00,
2013-05-18 12:45:00,74.9,69.0,30.06,NNE,23,0.0,-999.0,82,0.00,,,0.00,Wunderground v.1.15,2013-05-18 22:45:00,
2013-05-18 12:50:00,74.9,69.0,30.06,NNE,23,0.0,-999.0,82,0.00,,,0.00,Wunderground v.1.15,2013-05-18 22:50:00,
2013-05-18 12:55:00,74.9,69.0,30.06,NNE,23,0.0,-999.0,82,0.00,,,0.00,Wunderground v.1.15,2013-05-18 22:55:00,
2013-05-18 13:00:00,74.9,69.0,30.06,NNE,23,0.0,-999.0,82,0.00,,,0.00,Wunderground v.1.15,2013-05-18 23:00:00,
2013-05-18 13:05:00,74.9,69.0,30.06,NNE,23,0.0,-999.0,82,0.00,,,0.00,Wunderground v.1.15,2013-05-18 23:05:00,
2013-05-18 13:10:00,74.9,69.0,30.06,NNE,23,0.0,-999.0,82,0.00,,,0.00,Wunderground v.1.15,2013-05-18 23:10:00,
2013-05-18 13:15:00,72.9,68.5,30.05,NNE,23,0.0,-999.0,86,0.00,,,0.00,Wunderground v.1.15,2013-05-18 23:15:00,
2013-05-18 13:20:00,72.9,68.5,30.05,NNE,23,0.0,-999.0,86,0.00,,,0.00,Wunderground v.1.15,2013-05-18 23:20:00,
2013-05-18 13:25:00,72.9,68.5,30.05,NNE,23,0.0,-999.0,86,0.00,,,0.00,Wunderground v.1.15,2013-05-18 23:25:00,
2013-05-18 13:30:00,72.9,68.5,30.05,NNE,23,0.0,-999.0,86,0.00,,,0.00,Wunderground v.1.15,2013-05-18 23:30:00,
2013-05-18 13:35:00,72.9,68.5,30.05,NNE,23,0.0,-999.0,86,0.00,,,0.00,Wunderground v.1.15,2013-05-18 23:35:00,
2013-05-18 13:40:00,72.9,68.5,30.05,NNE,23,0.0,-999.0,86,0.00,,,0.00,Wunderground v.1.15,2013-05-18 23:40:00,
2013-05-18 13:45:00,74.6,66.9,30.04,NNE,23,1.0,-999.0,77,0.00,,,0.00,Wunderground v.1.15,2013-05-18 23:45:00,
2013-05-18 13:50:00,74.6,66.9,30.04,NNE,23,1.0,-999.0,77,0.00,,,0.00,Wunderground v.1.15,2013-05-18 23:50:00,
2013-05-18 13:55:00,74.6,66.9,30.04,NNE,23,1.0,-999.0,77,0.00,,,0.00,Wunderground v.1.15,2013-05-18 23:55:00,
2013-05-18 14:00:00,74.6,66.9,30.04,NNE,23,1.0,-999.0,77,0.00,,,0.00,Wunderground v.1.15,2013-05-19 00:00:00,
2013-05-18 14:05:00,74.6,66.9,30.04,NNE,23,1.0,-999.0,77,0.00,,,0.00,Wunderground v.1.15,2013-05-19 00:05:00,
2013-05-18 14:10:00,74.6,66.9,30.04,NNE,23,1.0,-999.0,77,0.00,,,0.00,Wunderground v.1.15,2013-05-19 00:10:00,
2013-05-18 14:15:00,76.9,64.7,30.03,NE,45,4.0,-999.0,66,0.00,,,0.00,Wunderground v.1.15,2013-05-19 00:15:00,
2013-05-18 14:20:00,76.9,64.7,30.03,NE,45,4.0,-999.0,66,0.00,,,0.00,Wunderground v.1.15,2013-05-19 00:20:00,
2013-05-18 14:25:00,76.9,64.7,30.03,NE,45,4.0,-999.0,66,0.00,,,0.00,Wunderground v.1.15,2013-05-19 00:25:00,
2013-05-18 14:30:00,76.9,64.7,30.03,NE,45,4.0,-999.0,66,0.00,,,0.00,Wunderground v.1.15,2013-05-19 00:30:00,
2013-05-18 14:35:00,76.9,64.7,30.03,NE,45,4.0,-999.0,66,0.00,,,0.00,Wunderground v.1.15,2013-05-19 00:35:00,
2013-05-18 14:40:00,76.9,64.7,30.03,NE,45,4.0,-999.0,66,0.00,,,0.00,Wunderground v.1.15,2013-05-19 00:40:00,
2013-05-18 14:45:00,78.7,64.6,30.02,ENE,68,4.0,-999.0,62,0.00,,,0.00,Wunderground v.1.15,2013-05-19 00:45:00,
2013-05-18 14:50:00,78.7,64.6,30.02,ENE,68,4.0,-999.0,62,0.00,,,0.00,Wunderground v.1.15,2013-05-19 00:50:00,
2013-05-18 14:55:00,78.7,64.6,30.02,ENE,68,4.0,-999.0,62,0.00,,,0.00,Wunderground v.1.15,2013-05-19 00:55:00,
2013-05-18 15:00:00,78.7,64.6,30.02,ENE,68,4.0,-999.0,62,0.00,,,0.00,Wunderground v.1.15,2013-05-19 01:00:00,
2013-05-18 15:05:00,78.7,64.6,30.02,ENE,68,4.0,-999.0,62,0.00,,,0.00,Wunderground v.1.15,2013-05-19 01:05:00,
2013-05-18 15:10:00,78.7,64.6,30.02,ENE,68,4.0,-999.0,62,0.00,,,0.00,Wunderground v.1.15,2013-05-19 01:10:00,
2013-05-18 15:15:00,81.2,62.4,30.01,NE,45,6.0,-999.0,53,0.00,,,0.00,Wunderground v.1.15,2013-05-19 01:15:00,
2013-05-18 15:20:00,81.2,62.4,30.01,NE,45,6.0,-999.0,53,0.00,,,0.00,Wunderground v.1.15,2013-05-19 01:20:00,
2013-05-18 15:25:00,81.2,62.4,30.01,NE,45,6.0,-999.0,53,0.00,,,0.00,Wunderground v.1.15,2013-05-19 01:25:00,
2013-05-18 15:30:00,81.2,62.4,30.01,NE,45,6.0,-999.0,53,0.00,,,0.00,Wunderground v.1.15,2013-05-19 01:30:00,
2013-05-18 15:35:00,81.2,62.4,30.01,NE,45,6.0,-999.0,53,0.00,,,0.00,Wunderground v.1.15,2013-05-19 01:35:00,
2013-05-18 15:40:00,81.2,62.4,30.01,NE,45,6.0,-999.0,53,0.00,,,0.00,Wunderground v.1.15,2013-05-19 01:40:00,
2013-05-18 15:45:00,83.4,64.5,30.00,NE,45,6.0,-999.0,53,0.00,,,0.00,Wunderground v.1.15,2013-05-19 01:45:00,
2013-05-18 15:50:00,83.4,64.5,30.00,NE,45,6.0,-999.0,53,0.00,,,0.00,Wunderground v.1.15,2013-05-19 01:50:00,
2013-05-18 15:55:00,83.4,64.5,30.00,NE,45,6.0,-999.0,53,0.00,,,0.00,Wunderground v.1.15,2013-05-19 01:55:00,
2013-05-18 16:00:00,83.4,64.5,30.00,NE,45,6.0,-999.0,53,0.00,,,0.00,Wunderground v.1.15,2013-05-19 02:00:00,
2013-05-18 16:05:00,83.4,64.5,30.00,NE,45,6.0,-999.0,53,0.00,,,0.00,Wunderground v.1.15,2013-05-19 02:05:00,
2013-05-18 16:10:00,83.4,64.5,30.00,NE,45,6.0,-999.0,53,0.00,,,0.00,Wunderground v.1.15,2013-05-19 02:10:00,
2013-05-18 16:15:00,82.7,62.7,30.00,NE,45,6.0,-999.0,51,0.00,,,0.00,Wunderground v.1.15,2013-05-19 02:15:00,
2013-05-18 16:20:00,82.7,62.7,30.00,NE,45,6.0,-999.0,51,0.00,,,0.00,Wunderground v.1.15,2013-05-19 02:20:00,
2013-05-18 16:25:00,82.7,62.7,30.00,NE,45,6.0,-999.0,51,0.00,,,0.00,Wunderground v.1.15,2013-05-19 02:25:00,
2013-05-18 16:30:00,82.7,62.7,30.00,NE,45,6.0,-999.0,51,0.00,,,0.00,Wunderground v.1.15,2013-05-19 02:30:00,
2013-05-18 16:35:00,82.7,62.7,30.00,NE,45,6.0,-999.0,51,0.00,,,0.00,Wunderground v.1.15,2013-05-19 02:35:00,
2013-05-18 16:40:00,82.7,62.7,30.00,NE,45,6.0,-999.0,51,0.00,,,0.00,Wunderground v.1.15,2013-05-19 02:40:00,
2013-05-18 16:45:00,81.1,63.9,30.00,SE,135,2.0,-999.0,56,0.00,,,0.00,Wunderground v.1.15,2013-05-19 02:45:00,
2013-05-18 16:50:00,81.1,63.9,30.00,SE,135,2.0,-999.0,56,0.00,,,0.00,Wunderground v.1.15,2013-05-19 02:50:00,
2013-05-18 16:55:00,81.1,63.9,30.00,SE,135,2.0,-999.0,56,0.00,,,0.00,Wunderground v.1.15,2013-05-19 02:55:00,
2013-05-18 17:00:00,81.1,63.9,30.00,SE,135,2.0,-999.0,56,0.00,,,0.00,Wunderground v.1.15,2013-05-19 03:00:00,
2013-05-18 17:05:00,81.1,63.9,30.00,SE,135,2.0,-999.0,56,0.00,,,0.00,Wunderground v.1.15,2013-05-19 03:05:00,
2013-05-18 17:10:00,81.1,63.9,30.00,SE,135,2.0,-999.0,56,0.00,,,0.00,Wunderground v.1.15,2013-05-19 03:10:00,
2013-05-18 17:15:00,78.2,67.2,30.01,SSW,203,2.0,-999.0,69,0.00,,,0.00,Wunderground v.1.15,2013-05-19 03:15:00,
2013-05-18 17:20:00,78.2,67.2,30.01,SSW,203,2.0,-999.0,69,0.00,,,0.00,Wunderground v.1.15,2013-05-19 03:20:00,
2013-05-18 17:25:00,78.2,67.2,30.01,SSW,203,2.0,-999.0,69,0.00,,,0.00,Wunderground v.1.15,2013-05-19 03:25:00,
2013-05-18 17:30:00,78.2,67.2,30.01,SSW,203,2.0,-999.0,69,0.00,,,0.00,Wunderground v.1.15,2013-05-19 03:30:00,
2013-05-18 17:35:00,78.2,67.2,30.01,SSW,203,2.0,-999.0,69,0.00,,,0.00,Wunderground v.1.15,2013-05-19 03:35:00,
2013-05-18 17:40:00,78.2,67.2,30.01,SSW,203,2.0,-999.0,69,0.00,,,0.00,Wunderground v.1.15,2013-05-19 03:40:00,
2013-05-18 17:45:00,75.9,66.2,30.02,SSW,203,2.0,-999.0,72,0.00,,,0.00,Wunderground v.1.15,2013-05-19 03:45:00,
2013-05-18 17:50:00,75.9,66.2,30.02,SSW,203,2.0,-999.0,72,0.00,,,0.00,Wunderground v.1.15,2013-05-19 03:50:00,
2013-05-18 17:55:00,75.9,66.2,30.02,SSW,203,2.0,-999.0,72,0.00,,,0.00,Wunderground v.1.15,2013-05-19 03:55:00,
2013-05-18 18:00:00,75.9,66.2,30.02,SSW,203,2.0,-999.0,72,0.00,,,0.00,Wunderground v.1.15,2013-05-19 04:00:00,
2013-05-18 18:05:00,75.9,66.2,30.02,SSW,203,2.0,-999.0,72,0.00,,,0.00,Wunderground v.1.15,2013-05-19 04:05:00,
2013-05-18 18:10:00,75.9,66.2,30.02,SSW,203,2.0,-999.0,72,0.00,,,0.00,Wunderground v.1.15,2013-05-19 04:10:00,
2013-05-18 18:15:00,75.5,65.0,30.02,East,90,0.0,-999.0,70,0.00,,,0.00,Wunderground v.1.15,2013-05-19 04:15:00,
2013-05-18 18:20:00,75.5,65.0,30.02,East,90,0.0,-999.0,70,0.00,,,0.00,Wunderground v.1.15,2013-05-19 04:20:00,
2013-05-18 18:25:00,75.5,65.0,30.02,East,90,0.0,-999.0,70,0.00,,,0.00,Wunderground v.1.15,2013-05-19 04:25:00,
2013-05-18 18:30:00,75.5,65.0,30.02,East,90,0.0,-999.0,70,0.00,,,0.00,Wunderground v.1.15,2013-05-19 04:30:00,
2013-05-18 18:35:00,75.5,65.0,30.02,East,90,0.0,-999.0,70,0.00,,,0.00,Wunderground v.1.15,2013-05-19 04:35:00,
2013-05-18 18:40:00,75.5,65.0,30.02,East,90,0.0,-999.0,70,0.00,,,0.00,Wunderground v.1.15,2013-05-19 04:40:00,
2013-05-18 18:45:00,74.6,63.3,30.02,ENE,68,3.0,-999.0,68,0.00,,,0.00,Wunderground v.1.15,2013-05-19 04:45:00,
2013-05-18 18:50:00,74.6,63.3,30.02,ENE,68,3.0,-999.0,68,0.00,,,0.00,Wunderground v.1.15,2013-05-19 04:50:00,
2013-05-18 18:55:00,74.6,63.3,30.02,ENE,68,3.0,-999.0,68,0.00,,,0.00,Wunderground v.1.15,2013-05-19 04:55:00,
2013-05-18 19:00:00,74.6,63.3,30.02,ENE,68,3.0,-999.0,68,0.00,,,0.00,Wunderground v.1.15,2013-05-19 05:00:00,
2013-05-18 19:05:00,74.6,63.3,30.02,ENE,68,3.0,-999.0,68,0.00,,,0.00,Wunderground v.1.15,2013-05-19 05:05:00,
2013-05-18 19:10:00,74.6,63.3,30.02,ENE,68,3.0,-999.0,68,0.00,,,0.00,Wunderground v.1.15,2013-05-19 05:10:00,
2013-05-18 19:15:00,73.1,64.3,30.04,ENE,68,3.0,-999.0,74,0.00,,,0.00,Wunderground v.1.15,2013-05-19 05:15:00,
2013-05-18 19:20:00,73.1,64.3,30.04,ENE,68,3.0,-999.0,74,0.00,,,0.00,Wunderground v.1.15,2013-05-19 05:20:00,
2013-05-18 19:25:00,73.1,64.3,30.04,ENE,68,3.0,-999.0,74,0.00,,,0.00,Wunderground v.1.15,2013-05-19 05:25:00,
2013-05-18 19:30:00,73.1,64.3,30.04,ENE,68,3.0,-999.0,74,0.00,,,0.00,Wunderground v.1.15,2013-05-19 05:30:00,
2013-05-18 19:35:00,73.1,64.3,30.04,ENE,68,3.0,-999.0,74,0.00,,,0.00,Wunderground v.1.15,2013-05-19 05:35:00,
2013-05-18 19:40:00,73.1,64.3,30.04,ENE,68,3.0,-999.0,74,0.00,,,0.00,Wunderground v.1.15,2013-05-19 05:40:00,
2013-05-18 19:45:00,71.5,63.5,30.05,ENE,68,4.0,-999.0,76,0.00,,,0.00,Wunderground v.1.15,2013-05-19 05:45:00,
2013-05-18 19:50:00,71.5,63.5,30.05,ENE,68,4.0,-999.0,76,0.00,,,0.00,Wunderground v.1.15,2013-05-19 05:50:00,
2013-05-18 19:55:00,71.5,63.5,30.05,ENE,68,4.0,-999.0,76,0.00,,,0.00,Wunderground v.1.15,2013-05-19 05:55:00,
2013-05-18 20:00:00,71.5,63.5,30.05,ENE,68,4.0,-999.0,76,0.00,,,0.00,Wunderground v.1.15,2013-05-19 06:00:00,
2013-05-18 20:05:00,71.5,63.5,30.05,ENE,68,4.0,-999.0,76,0.00,,,0.00,Wunderground v.1.15,2013-05-19 06:05:00,
2013-05-18 20:10:00,71.5,63.5,30.05,ENE,68,4.0,-999.0,76,0.00,,,0.00,Wunderground v.1.15,2013-05-19 06:10:00,
2013-05-18 20:15:00,70.4,62.8,30.05,ENE,68,4.0,-999.0,77,0.00,,,0.00,Wunderground v.1.15,2013-05-19 06:15:00,
2013-05-18 20:20:00,70.4,62.8,30.05,ENE,68,4.0,-999.0,77,0.00,,,0.00,Wunderground v.1.15,2013-05-19 06:20:00,
2013-05-18 20:25:00,70.4,62.8,30.05,ENE,68,4.0,-999.0,77,0.00,,,0.00,Wunderground v.1.15,2013-05-19 06:25:00,
2013-05-18 20:30:00,70.4,62.8,30.05,ENE,68,4.0,-999.0,77,0.00,,,0.00,Wunderground v.1.15,2013-05-19 06:30:00,
2013-05-18 20:35:00,70.4,62.8,30.05,ENE,68,4.0,-999.0,77,0.00,,,0.00,Wunderground v.1.15,2013-05-19 06:35:00,
2013-05-18 20:40:00,70.4,62.8,30.05,ENE,68,4.0,-999.0,77,0.00,,,0.00,Wunderground v.1.15,2013-05-19 06:40:00,
2013-05-18 20:45:00,69.8,63.3,30.06,ENE,68,1.0,-999.0,80,0.00,,,0.00,Wunderground v.1.15,2013-05-19 06:45:00,
2013-05-18 20:50:00,69.8,63.3,30.06,ENE,68,1.0,-999.0,80,0.00,,,0.00,Wunderground v.1.15,2013-05-19 06:50:00,
2013-05-18 20:55:00,69.8,63.3,30.06,ENE,68,1.0,-999.0,80,0.00,,,0.00,Wunderground v.1.15,2013-05-19 06:55:00,
2013-05-18 21:00:00,69.8,63.3,30.06,ENE,68,1.0,-999.0,80,0.00,,,0.00,Wunderground v.1.15,2013-05-19 07:00:00,
2013-05-18 21:05:00,69.8,63.3,30.06,ENE,68,1.0,-999.0,80,0.00,,,0.00,Wunderground v.1.15,2013-05-19 07:05:00,
2013-05-18 21:10:00,69.8,63.3,30.06,ENE,68,1.0,-999.0,80,0.00,,,0.00,Wunderground v.1.15,2013-05-19 07:10:00,
2013-05-18 21:15:00,69.2,62.8,30.06,ENE,68,2.0,-999.0,80,0.00,,,0.00,Wunderground v.1.15,2013-05-19 07:15:00,
2013-05-18 21:20:00,69.2,62.8,30.06,ENE,68,2.0,-999.0,80,0.00,,,0.00,Wunderground v.1.15,2013-05-19 07:20:00,
2013-05-18 21:25:00,69.2,62.8,30.06,ENE,68,2.0,-999.0,80,0.00,,,0.00,Wunderground v.1.15,2013-05-19 07:25:00,
2013-05-18 21:30:00,69.2,62.8,30.06,ENE,68,2.0,-999.0,80,0.00,,,0.00,Wunderground v.1.15,2013-05-19 07:30:00,
2013-05-18 21:35:00,69.2,62.8,30.06,ENE,68,2.0,-999.0,80,0.00,,,0.00,Wunderground v.1.15,2013-05-19 07:35:00,
2013-05-18 21:40:00,69.2,62.8,30.06,ENE,68,2.0,-999.0,80,0.00,,,0.00,Wunderground v.1.15,2013-05-19 07:40:00,
2013-05-18 21:45:00,68.9,62.5,30.07,ENE,68,2.0,-999.0,80,0.00,,,0.00,Wunderground v.1.15,2013-05-19 07:45:00,
2013-05-18 21:50:00,68.9,62.5,30.07,ENE,68,2.0,-999.0,80,0.00,,,0.00,Wunderground v.1.15,2013-05-19 07:50:00,
2013-05-18 21:55:00,68.9,62.5,30.07,ENE,68,2.0,-999.0,80,0.00,,,0.00,Wunderground v.1.15,2013-05-19 07:55:00,
2013-05-18 22:00:00,68.9,62.5,30.07,ENE,68,2.0,-999.0,80,0.00,,,0.00,Wunderground v.1.15,2013-05-19 08:00:00,
2013-05-18 22:05:00,68.9,62.5,30.07,ENE,68,2.0,-999.0,80,0.00,,,0.00,Wunderground v.1.15,2013-05-19 08:05:00,
2013-05-18 22:10:00,68.9,62.5,30.07,ENE,68,2.0,-999.0,80,0.00,,,0.00,Wunderground v.1.15,2013-05-19 08:10:00,
2013-05-18 22:15:00,68.4,61.3,30.07,ENE,68,0.0,-999.0,78,0.00,,,0.00,Wunderground v.1.15,2013-05-19 08:15:00,
2013-05-18 22:20:00,68.4,61.3,30.07,ENE,68,0.0,-999.0,78,0.00,,,0.00,Wunderground v.1.15,2013-05-19 08:20:00,
2013-05-18 22:25:00,68.4,61.3,30.07,ENE,68,0.0,-999.0,78,0.00,,,0.00,Wunderground v.1.15,2013-05-19 08:25:00,
2013-05-18 22:30:00,68.4,61.3,30.07,ENE,68,0.0,-999.0,78,0.00,,,0.00,Wunderground v.1.15,2013-05-19 08:30:00,
2013-05-18 22:35:00,68.4,61.3,30.07,ENE,68,0.0,-999.0,78,0.00,,,0.00,Wunderground v.1.15,2013-05-19 08:35:00,
2013-05-18 22:40:00,68.4,61.3,30.07,ENE,68,0.0,-999.0,78,0.00,,,0.00,Wunderground v.1.15,2013-05-19 08:40:00,
2013-05-18 22:45:00,67.8,60.7,30.07,ENE,68,2.0,-999.0,78,0.00,,,0.00,Wunderground v.1.15,2013-05-19 08:45:00,
2013-05-18 22:50:00,67.8,60.7,30.07,ENE,68,2.0,-999.0,78,0.00,,,0.00,Wunderground v.1.15,2013-05-19 08:50:00,
2013-05-18 22:55:00,67.8,60.7,30.07,ENE,68,2.0,-999.0,78,0.00,,,0.00,Wunderground v.1.15,2013-05-19 08:55:00,
2013-05-18 23:00:00,67.8,60.7,30.07,ENE,68,2.0,-999.0,78,0.00,,,0.00,Wunderground v.1.15,2013-05-19 09:00:00,
2013-05-18 23:05:00,67.8,60.7,30.07,ENE,68,2.0,-999.0,78,0.00,,,0.00,Wunderground v.1.15,2013-05-19 09:05:00,
2013-05-18 23:10:00,67.8,60.7,30.07,ENE,68,2.0,-999.0,78,0.00,,,0.00,Wunderground v.1.15,2013-05-19 09:10:00,
2013-05-18 23:15:00,68.0,61.2,30.06,ENE,68,1.0,-999.0,79,0.00,,,0.00,Wunderground v.1.15,2013-05-19 09:15:00,
2013-05-18 23:20:00,68.0,61.2,30.06,ENE,68,1.0,-999.0,79,0.00,,,0.00,Wunderground v.1.15,2013-05-19 09:20:00,
2013-05-18 23:25:00,68.0,61.2,30.06,ENE,68,1.0,-999.0,79,0.00,,,0.00,Wunderground v.1.15,2013-05-19 09:25:00,
2013-05-18 23:30:00,68.0,61.2,30.06,ENE,68,1.0,-999.0,79,0.00,,,0.00,Wunderground v.1.15,2013-05-19 09:30:00,
2013-05-18 23:35:00,68.0,61.2,30.06,ENE,68,1.0,-999.0,79,0.00,,,0.00,Wunderground v.1.15,2013-05-19 09:35:00,
2013-05-18 23:40:00,68.0,61.2,30.06,ENE,68,1.0,-999.0,79,0.00,,,0.00,Wunderground v.1.15,2013-05-19 09:40:00,
2013-05-18 23:45:00,67.5,61.1,30.06,ENE,68,0.0,-999.0,80,0.00,,,0.00,Wunderground v.1.15,2013-05-19 09:45:00,
2013-05-18 23:50:00,67.5,61.1,30.06,ENE,68,0.0,-999.0,80,0.00,,,0.00,Wunderground v.1.15,2013-05-19 09:50:00,
2013-05-18 23:55:00,67.5,61.1,30.06,ENE,68,0.0,-999.0,80,0.00,,,0.00,Wunderground v.1.15,2013-05-19 09:55:00,